Location: Peebles
(55.6412°N, 3.1714°W)
Time: 21:25:57
(UTC+00:00)

deb Agena D - Pass Details

Date: 21 September 2023
Orbit: 794 x 979 km, 99.8° (Epoch: 28 November)

Event Time Altitude Azimuth Distance (km) Brightness Sun altitude
Rises 02:53:13 0° 16° (NNE) 3,686 10.6 -29.4°
Reaches altitude 10° 02:55:53 10° 8° (N) 2,743 9.6 -29.2°
Maximum altitude 03:01:21 35° 306° (NW) 1,547 7.5 -28.8°
Enters shadow 03:01:53 34° 296° (WNW) 1,562 7.4 -28.8°
